Location: Cisewo
(53.3833°N, 14.9000°E)
Time: 11:52:07
(UTC+00:00)

Cosmos 2251 Rocket - Pass Details

Date: 18 April 2021
Orbit: 765 x 791 km, 74.0° (Epoch: 14 May)

Event Time Altitude Azimuth Distance (km) Brightness Sun altitude
Rises 19:56:21 0° 208° (SSW) 3,276 6.6 -14.7°
Reaches altitude 10° 19:58:45 10° 210° (SSW) 2,349 5.9 -14.9°
Maximum altitude 20:04:06 79° 297° (WNW) 809 3.7 -15.5°
Drops below altitude 10° 20:09:28 10° 25° (NNE) 2,351 6.3 -16.0°
Sets 20:11:52 0° 26° (NNE) 3,280 7.0 -16.3°
